Latest Weather Observations for Viewbank

IDV60801

Issued at 10:31 am EST Saturday 7 May 2016 (issued every 30 minutes, with the page automatically refreshed every 10 minutes)

About weather observations | Map of weather stations | Latest weather observations for VIC | Other Formats
Station Details ID: 086068 Name: VIEWBANK Lat: -37.74 Lon: 145.10 Height: 66.1 m
Data from the previous 72 hours. | See also: Recent months at Viewbank
Date/Time
EST
Temp
°C
App
Temp
°C
Dew
Point
Rel
Hum
%
Delta-T
°C
Wind Press
QNH
hPa
Press
MSL
hPa
Rain
since 9 am
mm
Dir
 
Spd
km/h
Gust
km/h
Spd
kts
Gust
kts
07/10:30am 23.1 21.0 9.8 43 7.2 ENE 11 20 6 11 1017.1 1017.1 0.0
07/10:00am 20.9 19.9 11.0 53 5.4 ENE 7 13 4 7 1017.0 1017.0 0.0
07/09:30am 15.9 16.7 12.6 81 1.8 CALM 0 0 0 0 1017.1 1017.1 0.0
07/09:00am 13.2 12.3 11.4 89 1.0 NNE 7 9 4 5 1017.5 1017.5 0.0
07/08:30am 11.1 11.4 10.9 99 0.1 CALM 0 0 0 0 1017.3 1017.3 0.0
07/08:00am 9.8 9.8 9.8 100 0.0 CALM 0 0 0 0 1017.0 1017.0 0.0
07/07:30am 10.3 10.1 10.3 100 0.0 NE 2 7 1 4 1016.7 1016.7 0.0
07/07:00am 9.3 8.8 9.3 100 0.0 NNE 2 7 1 4 1016.5 1016.5 0.0
07/06:30am 9.8 8.5 9.8 100 0.0 NNE 7 9 4 5 1016.3 1016.3 0.0
07/06:00am 10.3 10.4 10.3 100 0.0 CALM 0 0 0 0 1016.0 1016.0 0.0
07/05:30am 10.3 9.3 10.3 100 0.0 NNE 6 9 3 5 1015.8 1015.8 0.0
07/05:00am 10.0 9.3 10.0 100 0.0 NNE 4 7 2 4 1015.8 1015.8 0.0
07/04:30am 10.3 10.4 10.3 100 0.0 CALM 0 0 0 0 1015.3 1015.3 0.0
07/04:00am 10.9 10.4 10.9 100 0.0 ENE 4 7 2 4 1015.3 1015.3 0.0
07/03:30am 10.9 10.4 10.9 100 0.0 ENE 4 9 2 5 1015.0 1015.0 0.0
07/03:00am 10.7 10.6 10.7 100 0.0 ENE 2 6 1 3 1015.3 1015.3 0.0
07/02:30am 11.3 11.7 11.3 100 0.0 CALM 0 0 0 0 1015.5 1015.5 0.0
07/02:00am 11.2 10.8 11.2 100 0.0 WSW 4 9 2 5 1015.7 1015.7 0.0
07/01:30am 12.1 12.0 12.1 100 0.0 NNW 4 6 2 3 1015.8 1015.8 0.0
07/01:00am 11.9 12.1 11.7 99 0.1 NNW 2 7 1 4 1016.1 1016.1 0.0
07/12:30am 12.6 13.3 12.1 97 0.3 CALM 0 0 0 0 1016.5 1016.5 0.0
07/12:00am 12.8 12.9 11.4 91 0.7 SW 2 6 1 3 1016.6 1016.6 0.0
 
Date/Time
EST
Temp
°C
App
Temp
°C
Dew
Point
Rel
Hum
%
Delta-T
°C
Wind Press
QNH
hPa
Press
MSL
hPa
Rain
since 9 am
mm
Dir
 
Spd
km/h
Gust
km/h
Spd
kts
Gust
kts
06/11:30pm 13.5 13.2 11.4 87 1.1 SW 4 7 2 4 1016.6 1016.6 0.0
06/11:00pm 14.0 13.3 11.3 84 1.4 SW 6 7 3 4 1016.7 1016.7 0.0
06/10:30pm 14.1 13.2 11.3 83 1.5 SW 7 7 4 4 1016.9 1016.9 0.0
06/10:00pm 14.8 14.9 11.6 81 1.7 SW 2 7 1 4 1016.8 1016.8 0.0
06/09:30pm 15.3 15.3 11.3 77 2.1 SE 2 7 1 4 1016.7 1016.7 0.0
06/09:00pm 15.8 15.9 11.4 75 2.4 SE 2 9 1 5 1016.7 1016.7 0.0
06/08:30pm 16.2 16.2 11.2 72 2.7 SSE 2 6 1 3 1016.8 1016.8 0.0
06/08:00pm 17.0 15.7 11.3 69 3.1 S 9 13 5 7 1016.5 1016.5 0.0
06/07:30pm 18.1 16.8 11.2 64 3.8 SW 9 15 5 8 1016.3 1016.3 0.0
06/07:00pm 19.1 18.7 9.9 55 4.9 ESE 2 9 1 5 1015.9 1015.9 0.0
06/06:30pm 19.5 18.1 9.7 53 5.2 WSW 7 9 4 5 1015.4 1015.4 0.0
06/06:00pm 20.6 19.2 9.5 49 5.9 WNW 7 9 4 5 1014.9 1014.9 0.0
06/05:30pm 21.5 20.0 9.1 45 6.6 NW 7 9 4 5 1014.5 1014.5 0.0
06/05:00pm 22.8 20.5 8.9 41 7.4 NW 11 22 6 12 1014.4 1014.4 0.0
06/04:30pm 23.6 20.9 8.8 39 8.0 NNW 13 26 7 14 1014.3 1014.3 0.0
06/04:00pm 23.9 20.8 8.7 38 8.2 NW 15 24 8 13 1014.1 1014.1 0.0
06/03:30pm 23.8 19.9 8.6 38 8.1 NNW 19 26 10 14 1014.0 1014.0 0.0
06/03:00pm 23.8 19.8 9.0 39 8.0 N 20 35 11 19 1013.9 1013.9 0.0
06/02:30pm 23.8 19.2 8.2 37 8.3 N 22 39 12 21 1013.9 1013.9 0.0
06/02:00pm 24.2 20.4 9.0 38 8.2 NNW 19 32 10 17 1014.2 1014.2 0.0
06/01:30pm 23.9 19.9 8.3 37 8.3 NNW 19 32 10 17 1014.1 1014.1 0.0
06/01:00pm 23.5 17.8 8.4 38 8.0 NNW 28 43 15 23 1014.1 1014.1 0.0
06/12:30pm 23.6 19.1 8.5 38 8.1 N 22 37 12 20 1014.1 1014.1 0.0
06/12:10pm 23.0 17.4 8.7 40 7.6 N 28 46 15 25 1014.3 1014.3 0.0
06/12:00pm 23.1 18.0 9.1 41 7.5 N 26 44 14 24 1014.3 1014.3 0.0
06/11:30am 22.6 17.8 8.7 41 7.4 N 24 41 13 22 1014.8 1014.8 0.0
06/11:00am 22.2 17.4 9.0 43 7.1 N 24 37 13 20 1015.0 1015.0 0.0
06/10:30am 21.5 16.4 9.1 45 6.6 NNE 26 46 14 25 1014.9 1014.9 0.0
06/10:00am 20.4 16.7 9.3 49 5.9 NNE 19 35 10 19 1015.0 1015.0 0.0
06/09:30am 19.5 15.6 9.4 52 5.4 NNE 20 35 11 19 1015.4 1015.4 0.0
06/09:00am 18.9 15.6 9.4 54 5.0 NNE 17 32 9 17 1015.5 1015.5 0.0
06/08:30am 18.2 14.8 9.3 56 4.7 NNE 17 32 9 17 1015.3 1015.3 0.0
06/08:00am 17.5 14.9 9.4 59 4.2 NNE 13 24 7 13 1015.0 1015.0 0.0
06/07:30am 17.0 14.8 9.4 61 4.0 NE 11 20 6 11 1014.7 1014.7 0.0
06/07:00am 16.4 14.5 9.1 62 3.8 NE 9 17 5 9 1014.6 1014.6 0.0
06/06:30am 16.5 13.9 9.2 62 3.8 NE 13 26 7 14 1014.4 1014.4 0.0
06/06:00am 15.3 13.7 8.8 65 3.3 NE 7 17 4 9 1014.5 1014.5 0.0
06/05:30am 14.8 13.4 8.7 67 3.1 NE 6 11 3 6 1014.3 1014.3 0.0
06/05:00am 15.3 12.9 8.8 65 3.3 NNE 11 15 6 8 1014.1 1014.1 0.0
06/04:30am 15.3 13.3 8.8 65 3.3 NE 9 17 5 9 1014.1 1014.1 0.0
06/04:00am 14.9 13.3 8.6 66 3.2 NE 7 13 4 7 1014.0 1014.0 0.0
06/03:30am 14.0 12.4 8.2 68 2.9 NE 6 7 3 4 1014.0 1014.0 0.0
06/03:00am 14.7 13.1 8.2 65 3.3 ENE 6 13 3 7 1014.4 1014.4 0.0
06/02:30am 15.8 14.0 8.1 60 3.9 NNE 7 19 4 10 1014.3 1014.3 0.0
06/02:00am 16.0 13.8 8.0 59 4.0 NNE 9 15 5 8 1014.2 1014.2 0.0
06/01:30am 16.4 14.3 8.1 58 4.2 NNE 9 15 5 8 1014.1 1014.1 0.0
06/01:00am 16.4 15.3 8.4 59 4.1 NE 4 7 2 4 1014.1 1014.1 0.0
06/12:30am 16.1 14.4 8.3 60 4.0 NNE 7 11 4 6 1014.1 1014.1 0.0
06/12:00am 16.6 15.1 8.3 58 4.2 NE 6 9 3 5 1013.9 1013.9 0.0
 
Date/Time
EST
Temp
°C
App
Temp
°C
Dew
Point
Rel
Hum
%
Delta-T
°C
Wind Press
QNH
hPa
Press
MSL
hPa
Rain
since 9 am
mm
Dir
 
Spd
km/h
Gust
km/h
Spd
kts
Gust
kts
05/11:30pm 17.1 15.6 8.3 56 4.5 ENE 6 9 3 5 1014.1 1014.1 0.0
05/11:00pm 17.1 15.4 8.3 56 4.5 ENE 7 15 4 8 1014.1 1014.1 0.0
05/10:30pm 17.4 15.4 8.5 56 4.6 ENE 9 19 5 10 1014.2 1014.2 0.0
05/10:00pm 17.5 15.5 8.6 56 4.6 NE 9 17 5 9 1014.3 1014.3 0.0
05/09:30pm 17.5 15.6 8.9 57 4.5 NE 9 15 5 8 1014.4 1014.4 0.0
05/09:00pm 17.1 15.7 8.8 58 4.3 NE 6 13 3 7 1014.3 1014.3 0.0
05/08:30pm 17.3 15.4 9.0 58 4.3 ENE 9 17 5 9 1014.2 1014.2 0.0
05/08:00pm 17.5 16.1 8.9 57 4.5 NE 6 13 3 7 1014.1 1014.1 0.0
05/07:30pm 17.5 15.6 8.9 57 4.5 NE 9 15 5 8 1014.1 1014.1 0.0
05/07:00pm 17.8 15.9 9.2 57 4.5 NE 9 19 5 10 1013.8 1013.8 0.0
05/06:30pm 17.6 15.7 9.2 58 4.4 ENE 9 22 5 12 1013.7 1013.7 0.0
05/06:00pm 18.6 16.4 9.4 55 4.9 NE 11 20 6 11 1013.5 1013.5 0.0
05/05:30pm 18.9 15.6 9.4 54 5.0 NNE 17 28 9 15 1013.3 1013.3 0.0
05/05:00pm 19.1 15.4 9.6 54 5.0 NNE 19 37 10 20 1013.4 1013.4 0.0
05/04:30pm 19.5 15.8 10.0 54 5.1 N 20 37 11 20 1013.5 1013.5 0.0
05/04:00pm 19.4 15.5 9.6 53 5.2 N 20 39 11 21 1013.6 1013.6 0.0
05/03:30pm 19.7 15.4 9.3 51 5.5 N 22 41 12 22 1013.4 1013.4 0.0
05/03:10pm 19.8 14.4 9.4 51 5.5 NNE 28 48 15 26 1013.3 1013.3 0.0
05/03:00pm 20.1 16.2 9.4 50 5.7 N 20 39 11 21 1013.3 1013.3 0.0
05/02:30pm 19.9 15.2 9.2 50 5.7 N 24 41 13 22 1013.5 1013.5 0.0
05/02:00pm 19.8 14.4 9.4 51 5.5 NNE 28 50 15 27 1013.7 1013.7 0.0
05/01:30pm 20.1 14.3 9.4 50 5.7 N 30 48 16 26 1013.8 1013.8 0.0
05/01:00pm 20.4 14.9 9.3 49 5.9 N 28 46 15 25 1014.1 1014.1 0.0
05/12:30pm 19.4 13.0 8.7 50 5.6 N 32 54 17 29 1014.4 1014.4 0.0
05/12:15pm 19.6 14.0 8.9 50 5.6 N 28 50 15 27 1014.5 1014.5 0.0
05/12:00pm 19.7 14.5 8.7 49 5.8 N 26 48 14 26 1014.9 1014.9 0.0
05/11:43am 19.5 13.8 8.2 48 5.9 N 28 52 15 28 1015.3 1015.3 0.0
05/11:30am 19.9 15.5 8.9 49 5.8 N 22 44 12 24 1015.7 1015.7 0.0
05/11:00am 18.9 15.5 9.1 53 5.1 NNE 17 35 9 19 1016.1 1016.1 0.0
05/10:30am 17.9 13.4 8.7 55 4.8 N 22 37 12 20 1016.6 1016.6 0.0
05/10:00am 17.5 14.0 8.9 57 4.5 N 17 32 9 17 1016.8 1016.8 0.0
05/09:30am 16.5 12.9 8.5 59 4.1 N 17 32 9 17 1017.0 1017.0 0.0
05/09:00am 16.0 13.5 8.2 60 3.9 NE 11 20 6 11 1017.0 1017.0 0.0
05/08:30am 15.4 13.3 8.2 62 3.6 NE 9 19 5 10 1017.0 1017.0 0.0
05/08:00am 14.4 12.2 7.7 64 3.3 NE 9 17 5 9 1016.9 1016.9 0.0
05/07:30am 13.7 11.8 7.5 66 3.1 NNE 7 11 4 6 1016.9 1016.9 0.0
05/07:00am 14.4 12.0 7.0 61 3.6 NNE 9 15 5 8 1016.5 1016.5 0.0
05/06:30am 15.3 11.4 7.3 59 4.0 N 17 32 9 17 1016.5 1016.5 0.0
05/06:00am 15.3 11.3 6.8 57 4.2 NNE 17 32 9 17 1016.4 1016.4 0.0
05/05:30am 15.2 11.7 7.0 58 4.0 NNE 15 24 8 13 1016.3 1016.3 0.0
05/05:00am 15.0 11.1 7.3 60 3.8 NNE 17 26 9 14 1016.2 1016.2 0.0
05/04:30am 14.6 10.8 7.4 62 3.6 N 17 28 9 15 1016.1 1016.1 0.0
05/04:00am 14.4 11.0 7.5 63 3.4 N 15 24 8 13 1016.2 1016.2 0.0
05/03:30am 14.4 11.0 7.5 63 3.4 N 15 22 8 12 1016.3 1016.3 0.0
05/03:00am 14.4 11.7 7.5 63 3.4 N 11 19 6 10 1016.6 1016.6 0.0
05/02:30am 14.1 11.7 6.9 62 3.5 NNW 9 19 5 10 1016.9 1016.9 0.0
05/02:00am 14.2 11.4 7.0 62 3.5 N 11 19 6 10 1016.7 1016.7 0.0
05/01:30am 14.1 11.7 6.9 62 3.5 NNW 9 19 5 10 1016.8 1016.8 0.0
05/01:00am 14.2 11.0 7.0 62 3.5 N 13 20 7 11 1016.8 1016.8 0.0
05/12:30am 13.7 11.2 6.6 62 3.4 NNW 9 13 5 7 1016.9 1016.9 0.0
05/12:00am 14.0 11.1 6.4 60 3.7 N 11 15 6 8 1016.9 1016.9 0.0
 
Date/Time
EST
Temp
°C
App
Temp
°C
Dew
Point
Rel
Hum
%
Delta-T
°C
Wind Press
QNH
hPa
Press
MSL
hPa
Rain
since 9 am
mm
Dir
 
Spd
km/h
Gust
km/h
Spd
kts
Gust
kts
04/11:30pm 14.1 11.2 6.5 60 3.7 N 11 17 6 9 1017.0 1017.0 0.0
04/11:00pm 14.4 11.1 6.5 59 3.8 N 13 19 7 10 1017.2 1017.2 0.0
04/10:30pm 14.7 11.5 6.8 59 3.9 N 13 20 7 11 1017.4 1017.4 0.0
04/10:00pm 14.7 11.5 7.0 60 3.8 N 13 20 7 11 1017.4 1017.4 0.0
04/09:30pm 14.3 12.3 6.9 61 3.6 NNE 7 19 4 10 1017.2 1017.2 0.0
04/09:00pm 14.2 11.7 6.6 60 3.7 NNE 9 19 5 10 1017.2 1017.2 0.0
04/08:30pm 14.4 11.8 6.3 58 3.9 NNE 9 17 5 9 1017.0 1017.0 0.0
04/08:00pm 14.6 11.6 6.2 57 4.0 N 11 17 6 9 1016.8 1016.8 0.0
04/07:30pm 14.6 11.6 6.2 57 4.0 NNE 11 20 6 11 1016.6 1016.6 0.0
04/07:00pm 14.7 11.4 6.3 57 4.1 NNE 13 22 7 12 1016.3 1016.3 0.0
04/06:30pm 14.8 11.1 6.1 56 4.2 NE 15 26 8 14 1016.2 1016.2 0.0
04/06:00pm 14.9 11.6 6.5 57 4.1 NNE 13 20 7 11 1015.8 1015.8 0.0
04/05:30pm 15.0 11.6 6.0 55 4.3 NE 13 19 7 10 1015.5 1015.5 0.0
04/05:00pm 15.3 11.1 5.8 53 4.6 NNE 17 28 9 15 1015.3 1015.3 0.0
04/04:30pm 15.9 12.3 5.2 49 5.1 N 13 20 7 11 1015.1 1015.1 0.0
04/04:00pm 16.4 12.4 4.8 46 5.5 N 15 30 8 16 1014.9 1014.9 0.0
04/03:30pm 16.9 12.1 4.6 44 5.8 NNW 19 30 10 16 1015.0 1015.0 0.0
04/03:00pm 16.9 12.0 4.3 43 5.9 N 19 33 10 18 1014.8 1014.8 0.0
04/02:30pm 16.3 11.5 4.7 46 5.5 NNW 19 32 10 17 1014.7 1014.7 0.0
04/02:00pm 16.8 12.0 4.8 45 5.7 NNW 19 33 10 18 1014.7 1014.7 0.0
04/01:30pm 17.0 12.8 4.0 42 6.1 NNW 15 28 8 15 1014.8 1014.8 0.0
04/01:00pm 15.8 11.0 4.8 48 5.2 NNW 19 35 10 19 1014.8 1014.8 0.0
04/12:30pm 16.3 11.8 4.4 45 5.6 N 17 26 9 14 1015.0 1015.0 0.0
04/12:00pm 16.1 12.5 4.8 47 5.3 WNW 13 22 7 12 1015.5 1015.5 0.0
04/11:30am 16.3 13.3 4.0 44 5.7 NW 9 20 5 11 1015.6 1015.6 0.0
04/11:00am 15.8 12.9 6.3 53 4.6 NW 11 24 6 13 1015.8 1015.8 0.0

Other Formats:

Comma delimited format used in spreadsheet applications
http://www.bom.gov.au/fwo/IDV60801/IDV60801.95874.axf

JavaScript Object Notation format (JSON) in row-major order
http://www.bom.gov.au/fwo/IDV60801/IDV60801.95874.json